This is the latest recevied weather packets stored in our database for station/object HK3BJ-11. If no packets are shown the sender has not sent any weather packets the latest 10 day(s).
| Time | Temp. | Humidity | Pressure | Rain* | Wind** | Luminosity | Snow |
|---|---|---|---|---|---|---|---|
| 1787958841 | 16.11° C | 54% | 1015 hPa | 0 mm | - | - | - |
| 1787957896 | 16.11° C | 56% | 1015 hPa | 0 mm | - | - | - |
| 1787956950 | 16.11° C | 54% | 1015 hPa | 0 mm | - | - | - |
| 1787955998 | 19.44° C | 46% | 1013 hPa | 0 mm | - | - | - |
| 1787955008 | 18.33° C | 46% | 1013 hPa | 0 mm | - | - | - |
| 1787954044 | 19.44° C | 47% | 1013 hPa | 0 mm | - | - | - |
| 1787953103 | 18.33° C | 47% | 1012 hPa | 0 mm | - | - | - |
| 1787952160 | 21.67° C | 44% | 1011 hPa | 0 mm | - | - | - |
| 1787951215 | 20.56° C | 44% | 1011 hPa | 0 mm | - | - | - |
| 1787950270 | 19.44° C | 44% | 1011 hPa | 0 mm | - | - | - |
| 1787949326 | 18.33° C | 44% | 1011 hPa | 0 mm | - | - | - |
| 1787948385 | 22.78° C | 48% | 1011 hPa | 0 mm | - | - | - |
| 1787947441 | 21.67° C | 48% | 1011 hPa | 0 mm | - | - | - |
| 1787946496 | 20.56° C | 48% | 1011 hPa | 0 mm | - | - | - |
| 1787945546 | 19.44° C | 48% | 1011 hPa | 0 mm | - | - | - |
| 1787944603 | 18.33° C | 48% | 1012 hPa | 0 mm | - | - | - |
| 1787943654 | 22.78° C | 49% | 1012 hPa | 0 mm | - | - | - |
| 1787942705 | 21.67° C | 49% | 1012 hPa | 0 mm | - | - | - |
| 1787941748 | 20.56° C | 49% | 1013 hPa | 0 mm | - | - | - |
| 1787940796 | 19.44° C | 49% | 1013 hPa | 0 mm | - | - | - |
| 1787938841 | 18.33° C | 49% | 1013 hPa | 0 mm | - | - | - |
| 1787937899 | 22.22° C | 64% | 1014 hPa | 0 mm | - | - | - |
| 1787936954 | 21.11° C | 64% | 1014 hPa | 0 mm | - | - | - |
| 1787936011 | 20° C | 64% | 1014 hPa | 0 mm | - | - | - |
| 1787935056 | 18.89° C | 64% | 1014 hPa | 0 mm | - | - | - |
* Rain latest hour (hover to see other rain measurements)
** Current wind speed in m/s (hover to see current wind gust speed)